User: anonymous   Login
Location: Diebersbach
(48.5163°N, 8.0558°E)
Time: 04:07:43
(UTC+00:00)
Language:

ADEOS II - Orbit

View from above orbital plane
View from above orbital plane
View from above satellite
View from above satellite

Ground track
Ground track

The orbit data is extracted from the following two-line orbital elements,

1 27597U 02056A   21260.61590999  .00000027  00000-0  28395-4 0  9992
2 27597  98.5703 204.1115 0002142  86.6054 273.5372 14.27515881977033
Epoch (UTC): 17 September 2021 14:46:54
Eccentricity: 0.0002142
inclination: 98.5703°
perigee height: 798 km
apogee height: 801 km
right ascension of ascending node: 204.1115°
argument of perigee: 86.6054°
revolutions per day: 14.27515881
mean anomaly at epoch: 273.5372°
orbit number at epoch: 97703

The dashed part of the orbit path shows where the satellite is in the earth's shadow,  

DLR